THY7FJ LTCO-LTFJ

Flight info

Callsign THY7FJ
Flight time 0h 59m
Altitude 36000
Route INBAT UL851 ERZ UA4 SIV UL333 BAG UG8 TOKER
Aircraft B738/M-SDE2E3FGHIRWXY/LB1

Departure

Time 2026-05-06 20:59
Airport Ağrı Airport (LTCO)

Arrival

Time 2026-05-06 21:59
Airport Istanbul Sabiha Gökçen International Airport (LTFJ)
Time Latitude Longitude Altitude Speed Heading
2026-05-06 20:40 39.65531 43.02191 5420 ft 0 kts 255°
2026-05-06 20:42 39.65535 43.02207 5421 ft 2 kts 255°
2026-05-06 20:42 39.65537 43.02219 5422 ft 1 kts 255°
2026-05-06 20:42 39.65544 43.02237 5422 ft 2 kts 225°
2026-05-06 20:43 39.65556 43.02248 5422 ft 2 kts 199°
2026-05-06 20:43 39.65571 43.02251 5422 ft 2 kts 173°
2026-05-06 20:43 39.65578 43.02249 5422 ft 1 kts 162°
2026-05-06 20:43 39.65581 43.02248 5422 ft 0 kts 165°
2026-05-06 20:47 39.65580 43.02248 5422 ft 0 kts 165°
2026-05-06 20:47 39.65578 43.02248 5422 ft 2 kts 165°
2026-05-06 20:47 39.65539 43.02265 5423 ft 8 kts 153°
2026-05-06 20:47 39.65524 43.02283 5424 ft 9 kts 124°
2026-05-06 20:48 39.65544 43.02462 5433 ft 4 kts 76°
2026-05-06 20:48 39.65556 43.02518 5435 ft 8 kts 71°
2026-05-06 20:48 39.65615 43.02564 5435 ft 14 kts 352°
2026-05-06 20:49 39.65743 43.02524 5431 ft 22 kts 344°
2026-05-06 20:49 39.65897 43.02468 5427 ft 22 kts 345°
2026-05-06 20:49 39.66053 43.02413 5423 ft 23 kts 345°
2026-05-06 20:49 39.66209 43.02358 5419 ft 23 kts 344°
2026-05-06 20:50 39.66367 43.02301 5414 ft 23 kts 345°
2026-05-06 20:50 39.66528 43.02243 5409 ft 23 kts 344°
2026-05-06 20:50 39.66689 43.02186 5405 ft 23 kts 345°
2026-05-06 20:50 39.66852 43.02128 5401 ft 23 kts 345°
2026-05-06 20:51 39.66999 43.02080 5399 ft 18 kts 341°
2026-05-06 20:51 39.67082 43.01990 5397 ft 11 kts 317°
2026-05-06 20:51 39.67136 43.02006 5397 ft 7 kts 85°
2026-05-06 20:51 39.67105 43.02040 5398 ft 5 kts 167°
2026-05-06 20:52 39.67075 43.02048 5398 ft 3 kts 165°
2026-05-06 20:52 39.67073 43.02049 5398 ft 0 kts 165°
2026-05-06 20:58 39.67068 43.02050 5398 ft 5 kts 164°
2026-05-06 20:58 39.66808 43.02144 5402 ft 70 kts 164°
2026-05-06 20:59 39.66150 43.02382 5420 ft 124 kts 165°
2026-05-06 20:59 39.65149 43.02739 5452 ft 169 kts 163°
2026-05-06 20:59 39.63988 43.03134 5917 ft 171 kts 166°
2026-05-06 20:59 39.62794 43.03478 6320 ft 179 kts 168°
2026-05-06 21:00 39.61530 43.03778 6622 ft 189 kts 170°
2026-05-06 21:00 39.60177 43.04045 6928 ft 201 kts 171°
2026-05-06 21:00 39.58709 43.04330 7237 ft 220 kts 171°
2026-05-06 21:00 39.57035 43.04581 7636 ft 238 kts 180°
2026-05-06 21:01 39.55281 43.04174 8188 ft 250 kts 202°
2026-05-06 21:01 39.53749 43.03002 8766 ft 260 kts 218°
2026-05-06 21:01 39.52513 43.01210 9253 ft 275 kts 239°
2026-05-06 21:01 39.51958 42.98679 9946 ft 286 kts 267°
2026-05-06 21:02 39.52323 42.96098 10512 ft 300 kts 286°
2026-05-06 21:02 39.53041 42.93457 11009 ft 312 kts 286°
2026-05-06 21:02 39.53730 42.90776 11697 ft 316 kts 285°
2026-05-06 21:02 39.54413 42.88028 12428 ft 319 kts 284°
2026-05-06 21:03 39.55095 42.85275 13167 ft 321 kts 284°
2026-05-06 21:03 39.55801 42.82456 13894 ft 324 kts 284°
2026-05-06 21:03 39.56556 42.79467 14647 ft 328 kts 285°
2026-05-06 21:03 39.57288 42.76584 15329 ft 332 kts 285°
2026-05-06 21:04 39.58034 42.73646 16006 ft 336 kts 285°
2026-05-06 21:04 39.58806 42.70600 16706 ft 339 kts 285°
2026-05-06 21:04 39.59559 42.67638 17349 ft 343 kts 285°
2026-05-06 21:04 39.60306 42.64708 17991 ft 346 kts 285°
2026-05-06 21:05 39.61058 42.61733 18606 ft 350 kts 285°
2026-05-06 21:05 39.61813 42.58729 19211 ft 354 kts 285°
2026-05-06 21:05 39.62597 42.55610 19826 ft 357 kts 285°
2026-05-06 21:05 39.63434 42.52298 20454 ft 361 kts 285°
2026-05-06 21:06 39.64220 42.49195 21030 ft 364 kts 285°
2026-05-06 21:06 39.65017 42.46052 21594 ft 367 kts 285°
2026-05-06 21:06 39.65811 42.42902 22122 ft 371 kts 285°
2026-05-06 21:06 39.66609 42.39724 22618 ft 375 kts 285°
2026-05-06 21:07 39.67417 42.36502 23196 ft 377 kts 285°
2026-05-06 21:07 39.68231 42.33248 23661 ft 381 kts 285°
2026-05-06 21:07 39.69056 42.29945 24133 ft 385 kts 285°
2026-05-06 21:07 39.69885 42.26630 24615 ft 388 kts 285°
2026-05-06 21:08 39.70726 42.23255 25118 ft 391 kts 285°
2026-05-06 21:08 39.71581 42.19815 25606 ft 394 kts 285°
2026-05-06 21:08 39.72414 42.16457 26079 ft 396 kts 285°
2026-05-06 21:08 39.73300 42.12886 26559 ft 398 kts 285°
2026-05-06 21:09 39.74182 42.09320 26992 ft 401 kts 284°
2026-05-06 21:09 39.75041 42.05835 27381 ft 405 kts 284°
2026-05-06 21:09 39.75928 42.02242 27781 ft 408 kts 285°
2026-05-06 21:09 39.76852 41.98497 28215 ft 410 kts 284°
2026-05-06 21:10 39.77750 41.94844 28646 ft 412 kts 284°
2026-05-06 21:10 39.78670 41.91099 29062 ft 414 kts 284°
2026-05-06 21:10 39.79605 41.87276 29484 ft 416 kts 284°
2026-05-06 21:10 39.80538 41.83446 29837 ft 420 kts 284°
2026-05-06 21:11 39.81448 41.79707 30188 ft 422 kts 284°
2026-05-06 21:11 39.82348 41.76004 30502 ft 426 kts 284°
2026-05-06 21:11 39.83257 41.72262 30814 ft 429 kts 284°
2026-05-06 21:11 39.84161 41.68540 31100 ft 432 kts 284°
2026-05-06 21:12 39.85089 41.64719 31386 ft 435 kts 284°
2026-05-06 21:12 39.86037 41.60809 31719 ft 437 kts 284°
2026-05-06 21:12 39.86973 41.56945 32004 ft 440 kts 285°
2026-05-06 21:12 39.87913 41.53059 32270 ft 442 kts 285°
2026-05-06 21:13 39.88839 41.49227 32515 ft 445 kts 285°
2026-05-06 21:13 39.89785 41.45305 32769 ft 447 kts 285°
2026-05-06 21:13 39.90714 41.41445 33015 ft 447 kts 285°
2026-05-06 21:13 39.91644 41.37579 33219 ft 449 kts 285°
2026-05-06 21:14 39.92588 41.33645 33420 ft 451 kts 284°
2026-05-06 21:14 39.93525 41.29734 33599 ft 452 kts 284°
2026-05-06 21:14 39.94441 41.25776 33765 ft 454 kts 282°
2026-05-06 21:14 39.95181 41.21746 33929 ft 454 kts 278°
2026-05-06 21:15 39.95622 41.17650 34114 ft 453 kts 272°
2026-05-06 21:15 39.95809 41.13582 34291 ft 453 kts 269°
2026-05-06 21:15 39.95862 41.09466 34499 ft 453 kts 267°
2026-05-06 21:15 39.95850 41.05330 34674 ft 455 kts 266°
2026-05-06 21:16 39.95814 41.01192 34944 ft 454 kts 266°
2026-05-06 21:16 39.95773 40.97083 35231 ft 453 kts 266°
2026-05-06 21:16 39.95736 40.92966 35505 ft 451 kts 266°
2026-05-06 21:16 39.95708 40.88867 35767 ft 450 kts 267°
2026-05-06 21:17 39.95685 40.84782 35815 ft 453 kts 267°
2026-05-06 21:17 39.95650 40.76480 35800 ft 452 kts 267°
2026-05-06 21:18 39.95621 40.68307 35791 ft 452 kts 267°
2026-05-06 21:18 39.95591 40.60043 35791 ft 453 kts 267°
2026-05-06 21:19 39.95557 40.51782 35789 ft 453 kts 267°
2026-05-06 21:19 39.95518 40.43474 35787 ft 454 kts 266°
2026-05-06 21:20 39.95473 40.35189 35785 ft 455 kts 267°
2026-05-06 21:20 39.95423 40.26816 35780 ft 455 kts 266°
2026-05-06 21:21 39.95366 40.18486 35764 ft 456 kts 266°
2026-05-06 21:21 39.95305 40.10202 35767 ft 455 kts 266°
2026-05-06 21:22 39.95236 40.01901 35760 ft 456 kts 266°
2026-05-06 21:22 39.95160 39.93614 35753 ft 455 kts 266°
2026-05-06 21:23 39.95078 39.85332 35766 ft 457 kts 266°
2026-05-06 21:23 39.94987 39.77026 35753 ft 457 kts 266°
2026-05-06 21:24 39.94890 39.68744 35771 ft 457 kts 265°
2026-05-06 21:24 39.94786 39.60276 35784 ft 457 kts 265°
2026-05-06 21:25 39.94678 39.51936 35800 ft 457 kts 266°
2026-05-06 21:25 39.94563 39.43456 35791 ft 458 kts 266°
2026-05-06 21:26 39.94443 39.35064 35779 ft 459 kts 266°
2026-05-06 21:26 39.94318 39.26552 35766 ft 458 kts 265°
2026-05-06 21:27 39.94186 39.17997 35760 ft 458 kts 265°
2026-05-06 21:27 39.94047 39.09542 35766 ft 458 kts 265°
2026-05-06 21:28 39.93912 39.01195 35770 ft 458 kts 265°
2026-05-06 21:28 39.93538 38.92822 35782 ft 460 kts 262°
2026-05-06 21:29 39.84999 37.72078 35796 ft 457 kts 262°
2026-05-06 21:29 39.76680 36.51046 36086 ft 460 kts 267°
2026-05-06 21:29 39.77134 36.46788 35883 ft 470 kts 283°
2026-05-06 21:30 39.77974 36.42630 35720 ft 465 kts 279°
2026-05-06 21:30 39.79072 36.34206 35695 ft 462 kts 275°
2026-05-06 21:31 39.80055 36.25794 35696 ft 463 kts 275°
2026-05-06 21:31 39.86748 35.67293 35654 ft 463 kts 276°
2026-05-06 21:32 40.01050 34.34113 35597 ft 463 kts 275°
2026-05-06 21:32 40.13034 33.07041 35700 ft 465 kts 274°
2026-05-06 21:32 40.13411 33.02825 35642 ft 465 kts 274°
2026-05-06 21:33 40.14175 32.94433 35648 ft 465 kts 274°
2026-05-06 21:33 40.14932 32.86022 35658 ft 467 kts 275°
2026-05-06 21:34 40.15677 32.77611 35651 ft 465 kts 275°
2026-05-06 21:34 40.16405 32.69248 35659 ft 466 kts 275°
2026-05-06 21:35 40.17126 32.60863 35668 ft 466 kts 275°
2026-05-06 21:35 40.18057 32.52475 35657 ft 467 kts 280°
2026-05-06 21:36 40.25792 32.11753 35665 ft 468 kts 282°
2026-05-06 21:36 40.40538 31.29898 35633 ft 466 kts 280°
2026-05-06 21:37 40.41181 31.25666 35440 ft 466 kts 280°
2026-05-06 21:37 40.41822 31.21420 35256 ft 464 kts 280°
2026-05-06 21:37 40.42483 31.17128 35064 ft 465 kts 281°
2026-05-06 21:37 40.43152 31.12902 34842 ft 466 kts 281°
2026-05-06 21:38 40.43858 31.08550 34643 ft 466 kts 282°
2026-05-06 21:38 40.44573 31.04212 34449 ft 466 kts 282°
2026-05-06 21:38 40.45296 30.99874 34251 ft 466 kts 282°
2026-05-06 21:38 40.46013 30.95599 34054 ft 464 kts 282°
2026-05-06 21:39 40.46733 30.91315 33906 ft 462 kts 282°
2026-05-06 21:39 40.47443 30.87093 33648 ft 463 kts 282°
2026-05-06 21:39 40.48145 30.82915 33116 ft 466 kts 282°
2026-05-06 21:39 40.48849 30.78720 32461 ft 470 kts 282°
2026-05-06 21:40 40.49558 30.74488 31879 ft 470 kts 283°
2026-05-06 21:40 40.50248 30.70359 31728 ft 458 kts 283°
2026-05-06 21:40 40.50937 30.66229 31516 ft 447 kts 283°
2026-05-06 21:40 40.51613 30.62165 31080 ft 443 kts 283°
2026-05-06 21:41 40.52288 30.58096 30543 ft 439 kts 283°
2026-05-06 21:41 40.52958 30.54046 30013 ft 436 kts 283°
2026-05-06 21:41 40.53616 30.50060 29544 ft 431 kts 283°
2026-05-06 21:41 40.54261 30.46149 29100 ft 426 kts 283°
2026-05-06 21:42 40.54899 30.42268 28591 ft 422 kts 283°
2026-05-06 21:42 40.55537 30.38375 27999 ft 421 kts 283°
2026-05-06 21:42 40.56145 30.34646 27438 ft 419 kts 282°
2026-05-06 21:42 40.56767 30.30827 26552 ft 420 kts 282°
2026-05-06 21:43 40.57367 30.27121 25742 ft 414 kts 282°
2026-05-06 21:43 40.57978 30.23335 24888 ft 409 kts 282°
2026-05-06 21:43 40.58571 30.19654 24054 ft 404 kts 282°
2026-05-06 21:43 40.59163 30.15985 23222 ft 399 kts 282°
2026-05-06 21:44 40.59743 30.12387 22408 ft 394 kts 282°
2026-05-06 21:44 40.60305 30.08886 21608 ft 389 kts 282°
2026-05-06 21:44 40.60856 30.05451 20819 ft 385 kts 282°
2026-05-06 21:44 40.61402 30.02040 20028 ft 380 kts 282°
2026-05-06 21:45 40.61943 29.98668 19245 ft 376 kts 282°
2026-05-06 21:45 40.62478 29.95343 18466 ft 372 kts 282°
2026-05-06 21:45 40.63005 29.92040 17700 ft 368 kts 282°
2026-05-06 21:45 40.63522 29.88775 16934 ft 364 kts 282°
2026-05-06 21:46 40.64026 29.85585 16175 ft 360 kts 282°
2026-05-06 21:47 40.67065 29.66303 11470 ft 338 kts 282°
2026-05-06 21:47 40.67543 29.63294 10716 ft 335 kts 282°
2026-05-06 21:48 40.68021 29.60280 9950 ft 333 kts 282°
2026-05-06 21:48 40.68479 29.57361 9753 ft 311 kts 282°
2026-05-06 21:48 40.68898 29.54684 9771 ft 286 kts 283°
2026-05-06 21:48 40.69293 29.52186 9395 ft 282 kts 283°
2026-05-06 21:49 40.69700 29.49639 8826 ft 281 kts 283°
2026-05-06 21:49 40.70091 29.47162 8449 ft 274 kts 284°
2026-05-06 21:49 40.70468 29.44739 8071 ft 268 kts 284°
2026-05-06 21:49 40.70836 29.42359 7697 ft 262 kts 284°
2026-05-06 21:50 40.71196 29.40030 7315 ft 258 kts 285°
2026-05-06 21:50 40.71549 29.37749 6934 ft 254 kts 285°
2026-05-06 21:50 40.71899 29.35479 6693 ft 252 kts 286°
2026-05-06 21:50 40.72250 29.33210 6424 ft 254 kts 285°
2026-05-06 21:51 40.72600 29.30936 6162 ft 252 kts 285°
2026-05-06 21:51 40.72945 29.28687 5908 ft 251 kts 285°
2026-05-06 21:51 40.73289 29.26442 5653 ft 249 kts 285°
2026-05-06 21:51 40.73629 29.24223 5399 ft 246 kts 285°
2026-05-06 21:52 40.73963 29.22019 5126 ft 241 kts 285°
2026-05-06 21:52 40.74283 29.19880 4876 ft 237 kts 285°
2026-05-06 21:52 40.74609 29.17763 4621 ft 237 kts 286°
2026-05-06 21:52 40.74939 29.15636 4365 ft 234 kts 285°
2026-05-06 21:53 40.75250 29.13578 4136 ft 227 kts 285°
2026-05-06 21:53 40.75553 29.11587 3888 ft 219 kts 287°
2026-05-06 21:53 40.76033 29.09729 3622 ft 206 kts 306°
2026-05-06 21:53 40.76984 29.08444 3364 ft 190 kts 334°
2026-05-06 21:54 40.78155 29.07797 3112 ft 180 kts 349°
2026-05-06 21:54 40.79353 29.07603 2975 ft 166 kts
2026-05-06 21:54 40.80449 29.08000 3004 ft 163 kts 26°
2026-05-06 21:54 40.81356 29.08884 3001 ft 163 kts 47°
2026-05-06 21:55 40.82019 29.10090 3002 ft 163 kts 56°
2026-05-06 21:55 40.82578 29.11391 3003 ft 164 kts 59°
2026-05-06 21:55 40.83091 29.12735 3003 ft 163 kts 61°
2026-05-06 21:55 40.83602 29.14088 3003 ft 162 kts 61°
2026-05-06 21:56 40.84105 29.15431 3002 ft 164 kts 60°
2026-05-06 21:56 40.84609 29.16785 2836 ft 165 kts 60°
2026-05-06 21:56 40.85117 29.18152 2544 ft 166 kts 60°
2026-05-06 21:56 40.85621 29.19513 2273 ft 164 kts 61°
2026-05-06 21:57 40.86119 29.20848 2014 ft 163 kts 60°
2026-05-06 21:57 40.86603 29.22157 1766 ft 152 kts 60°
2026-05-06 21:57 40.87049 29.23356 1511 ft 140 kts 60°
2026-05-06 21:57 40.87461 29.24466 1307 ft 134 kts 60°
2026-05-06 21:58 40.87876 29.25584 1089 ft 134 kts 60°
2026-05-06 21:58 40.88290 29.26695 870 ft 134 kts 60°
2026-05-06 21:58 40.88697 29.27802 644 ft 135 kts 61°
2026-05-06 21:58 40.89111 29.28911 410 ft 136 kts 60°
2026-05-06 21:59 40.89516 29.29999 321 ft 111 kts 64°
2026-05-06 21:59 40.89764 29.30673 321 ft 55 kts 64°
2026-05-06 21:59 40.89901 29.31035 321 ft 34 kts 61°
2026-05-06 21:59 40.90044 29.31267 321 ft 31 kts 37°
2026-05-06 22:00 40.90186 29.31397 321 ft 18 kts 34°
2026-05-06 22:00 40.90276 29.31482 321 ft 15 kts 27°
2026-05-06 22:00 40.90373 29.31464 321 ft 14 kts 333°
2026-05-06 22:00 40.90465 29.31415 321 ft 14 kts 336°
2026-05-06 22:01 40.90522 29.31379 321 ft 0 kts 334°
2026-05-06 22:01 40.90523 29.31378 321 ft 0 kts 334°
2026-05-06 22:01 40.90527 29.31376 321 ft 0 kts 335°
2026-05-06 22:01 40.90528 29.31375 321 ft 0 kts 334°